FW4469 Weather Reports


Display with metric or nautical units.
time (UTC)temp
F
wind
direction
speed
MPH
gust
MPH
rain 1hr
in
rain 24hr
in
rain mn
in
humidity
%
barometer
mb
20210926045003 54 0 0.0 0.0 0.00 0.00 0.00 97 1009.9
20210926044003 54 0 0.0 0.0 0.00 0.00 0.00 97 1009.9
20210926043004 54 0 0.0 0.0 0.00 0.00 0.00 97 1009.8
20210926042003 54 0 0.0 0.0 0.00 0.00 0.00 97 1009.8
20210926041003 55 0 0.0 0.0 0.00 0.00 0.00 97 1009.8
20210926040003 55 0 0.0 0.0 0.00 0.00 0.00 97 1009.8
20210926035004 55 0 0.0 0.0 0.00 0.00 0.00 96 1009.8
20210926034004 55 0 0.0 0.0 0.00 0.00 0.00 96 1009.8
20210926033005 56 0 0.0 0.0 0.00 0.00 0.00 96 1009.8
20210926032003 56 0 0.0 0.0 0.00 0.00 0.00 96 1010.1
20210926031003 56 0 0.0 0.0 0.00 0.00 0.00 96 1010.2
20210926030004 57 0 0.0 0.0 0.00 0.00 0.00 96 1010.3
20210926025004 57 0 0.0 0.0 0.00 0.00 0.00 96 1010.3
20210926024003 57 0 0.0 0.0 0.00 0.00 0.00 96 1010.5
20210926023003 58 0 0.0 0.0 0.00 0.00 0.00 96 1010.6
20210926022003 58 0 0.0 0.0 0.00 0.00 0.00 96 1010.7
20210926021003 58 0 0.0 0.0 0.00 0.00 0.00 97 1010.8
20210926020005 58 0 0.0 0.0 0.00 0.00 0.00 97 1010.7
20210926015004 58 0 0.0 0.0 0.00 0.00 0.00 98 1010.8
20210926014003 58 0 0.0 0.0 0.00 0.00 0.00 98 1010.8
20210926013004 58 0 0.0 0.0 0.00 0.00 0.00 98 1010.9
20210926012004 59 0 0.0 0.0 0.00 0.00 0.00 98 1011.0
20210926011004 59 0 0.0 0.0 0.00 0.00 0.00 98 1011.0
20210926010004 59 0 0.0 0.0 0.00 0.00 0.00 98 1011.0
20210926005003 59 0 0.0 0.0 0.00 0.00 0.00 98 1011.1
20210926004003 59 0 0.0 0.0 0.00 0.00 0.00 98 1011.1
20210926003003 59 0 0.0 0.0 0.00 0.00 0.00 98 1011.1
20210926002003 59 0 0.0 0.0 0.00 0.00 0.00 98 1011.1
20210926001003 60 0 0.0 0.0 0.00 0.00 0.00 98 1011.1
20210926000003 60 0 0.0 0.0 0.00 0.00 0.00 98 1011.2
20210925235003 60 0 0.0 0.0 0.00 0.00 0.00 98 1011.2
20210925234004 60 0 0.0 0.0 0.00 0.00 0.00 98 1011.5
20210925233003 60 0 0.0 0.0 0.00 0.00 0.00 98 1011.5
20210925232004 60 0 0.0 0.0 0.00 0.00 0.00 98 1011.5
20210925231003 60 0 0.0 0.0 0.00 0.00 0.00 98 1011.6
20210925230004 60 0 0.0 0.0 0.00 0.00 0.00 98 1011.7
20210925225003 60 0 0.0 0.0 0.00 0.00 0.00 98 1011.7
20210925224003 60 0 0.0 0.0 0.00 0.00 0.00 98 1011.6
20210925223004 60 0 0.0 0.0 0.00 0.00 0.00 98 1011.8
20210925222003 59 0 0.0 0.0 0.00 0.00 0.00 97 1011.8
20210925221003 59 0 0.0 0.0 0.00 0.00 0.00 97 1011.9
20210925220004 59 0 0.0 0.0 0.00 0.00 0.00 96 1011.9
20210925215003 59 0 0.0 0.0 0.00 0.00 0.00 96 1012.0
20210925214003 60 0 0.0 0.0 0.00 0.00 0.00 96 1012.0
20210925213003 60 0 0.0 0.0 0.00 0.00 0.00 95 1012.0
20210925212003 60 0 0.0 0.0 0.00 0.00 0.00 95 1012.2
20210925211003 60 0 0.0 0.0 0.00 0.00 0.00 95 1012.2
20210925210003 60 0 0.0 0.0 0.00 0.00 0.00 94 1012.3
20210925205003 60 0 0.0 0.0 0.00 0.00 0.00 94 1012.2
20210925204003 60 0 0.0 0.0 0.00 0.00 0.00 93 1012.1
20210925203004 60 0 0.0 0.0 0.00 0.00 0.00 93 1012.2
20210925202003 60 0 0.0 0.0 0.00 0.00 0.00 93 1012.2
20210925201003 60 0 0.0 0.0 0.00 0.00 0.00 92 1012.1
20210925200003 60 0 0.0 0.0 0.00 0.00 0.00 92 1012.2
20210925195003 60 0 0.0 0.0 0.00 0.00 0.00 92 1012.2
20210925194004 60 0 0.0 0.0 0.00 0.00 0.00 91 1012.2
20210925193003 60 0 0.0 0.0 0.00 0.00 0.00 92 1012.2
20210925192003 59 0 0.0 0.0 0.00 0.00 0.00 94 1012.2
20210925191003 59 0 0.0 0.0 0.00 0.00 0.00 95 1012.2
20210925190003 58 0 0.0 0.0 0.00 0.00 0.00 95 1012.3
20210925185004 58 0 0.0 0.0 0.00 0.00 0.00 95 1012.3
20210925184004 58 0 0.0 0.0 0.00 0.00 0.00 94 1012.3
20210925183003 59 0 0.0 0.0 0.00 0.00 0.00 94 1012.3
20210925182004 59 0 0.0 0.0 0.00 0.00 0.00 93 1012.3
20210925181004 60 0 0.0 0.0 0.00 0.00 0.00 92 1012.3
20210925180004 61 0 0.0 0.0 0.00 0.00 0.00 90 1012.3
20210925175003 63 0 0.0 0.0 0.00 0.00 0.00 86 1012.2
20210925174004 65 0 0.0 0.0 0.00 0.00 0.00 85 1012.2
20210925173004 66 0 0.0 0.0 0.00 0.00 0.00 86 1012.3
20210925172004 65 0 0.0 0.0 0.00 0.00 0.00 89 1012.4
20210925171003 64 0 0.0 0.0 0.00 0.00 0.00 91 1012.5
20210925170003 63 0 0.0 0.0 0.00 0.00 0.00 89 1012.5
20210925165003 64 0 0.0 0.0 0.00 0.00 0.00 89 1012.5
20210925164004 64 0 0.0 0.0 0.00 0.00 0.00 88 1012.5
20210925163004 64 0 0.0 0.0 0.00 0.00 0.00 88 1012.6
20210925162004 64 0 0.0 0.0 0.00 0.00 0.00 88 1012.6
20210925161004 64 0 0.0 0.0 0.00 0.00 0.00 89 1012.6
20210925160004 63 0 0.0 0.0 0.00 0.00 0.00 90 1012.7
20210925155004 63 0 0.0 0.0 0.00 0.00 0.00 90 1012.9
20210925154003 63 0 0.0 0.0 0.00 0.00 0.00 90 1012.9
20210925153003 63 0 0.0 0.0 0.00 0.00 0.00 90 1013.0
20210925152003 63 0 0.0 0.0 0.00 0.00 0.00 90 1013.0
20210925151004 63 0 0.0 0.0 0.00 0.00 0.00 91 1013.1
20210925150004 63 0 0.0 0.0 0.00 0.00 0.00 91 1013.4
20210925145003 63 0 0.0 0.0 0.00 0.00 0.00 90 1013.5
20210925144003 63 0 0.0 0.0 0.00 0.00 0.00 90 1013.6
20210925143004 63 0 0.0 0.0 0.00 0.00 0.00 90 1013.7
20210925142006 63 0 0.0 0.0 0.00 0.00 0.00 90 1013.7
20210925141004 64 0 0.0 0.0 0.00 0.00 0.00 89 1013.8
20210925140004 64 0 0.0 0.0 0.00 0.00 0.00 89 1013.8
20210925135003 64 0 0.0 0.0 0.00 0.00 0.00 88 1013.7
20210925134003 65 0 0.0 0.0 0.00 0.00 0.00 88 1013.8
20210925133004 64 0 0.0 0.0 0.00 0.00 0.00 89 1013.9
20210925132003 64 0 0.0 0.0 0.00 0.00 0.00 89 1013.9
20210925131003 64 0 0.0 0.0 0.00 0.00 0.00 89 1013.9
20210925130003 64 0 0.0 0.0 0.00 0.00 0.00 90 1014.1
20210925125003 63 0 0.0 0.0 0.00 0.00 0.00 91 1013.9
20210925124006 63 0 0.0 0.0 0.00 0.00 0.00 91 1014.2
20210925123004 63 0 0.0 0.0 0.00 0.00 0.00 92 1014.2
20210925122003 62 0 0.0 0.0 0.00 0.00 0.00 93 1014.2
20210925121003 62 0 0.0 0.0 0.00 0.00 0.00 92 1014.3
20210925120003 62 0 0.0 0.0 0.00 0.00 0.00 93 1014.6
20210925115003 62 0 0.0 0.0 0.00 0.00 0.00 93 1014.6
20210925114003 62 0 0.0 0.0 0.00 0.00 0.00 93 1014.6
20210925113004 62 0 0.0 0.0 0.00 0.00 0.00 92 1014.7
20210925112004 62 0 0.0 0.0 0.00 0.00 0.00 92 1014.6
20210925111004 63 0 0.0 0.0 0.00 0.00 0.00 93 1014.7
20210925110004 63 0 0.0 0.0 0.00 0.00 0.00 92 1014.7
20210925105003 63 0 0.0 0.0 0.00 0.00 0.00 92 1014.9
20210925104003 64 0 0.0 0.0 0.00 0.00 0.00 92 1014.9
20210925103003 64 0 0.0 0.0 0.00 0.00 0.00 91 1015.0
20210925102003 64 0 0.0 0.0 0.00 0.00 0.00 90 1014.9
20210925101003 65 0 0.0 0.0 0.00 0.00 0.00 91 1014.8
20210925100004 64 0 0.0 0.0 0.00 0.00 0.00 97 1014.8
20210925095003 62 0 0.0 0.0 0.00 0.00 0.00 98 1014.8
20210925094003 62 0 0.0 0.0 0.00 0.00 0.00 99 1014.9
20210925093003 61 0 0.0 0.0 0.00 0.00 0.00 98 1014.9
20210925092003 61 0 0.0 0.0 0.00 0.00 0.00 99 1015.1
20210925091004 61 0 0.0 0.0 0.00 0.00 0.00 99 1015.1
20210925090006 61 0 0.0 0.0 0.00 0.00 0.00 100 1014.9
20210925085004 61 0 0.0 0.0 0.00 0.00 0.00 99 1014.8
20210925084003 61 0 0.0 0.0 0.00 0.00 0.00 99 1014.9
20210925083003 61 0 0.0 0.0 0.00 0.00 0.00 100 1014.8
20210925082003 61 0 0.0 0.0 0.00 0.00 0.00 100 1014.8
20210925081003 60 0 0.0 0.0 0.00 0.00 0.00 100 1014.6
20210925080003 60 0 0.0 0.0 0.00 0.00 0.00 100 1014.6
20210925075004 60 0 0.0 0.0 0.00 0.00 0.00 100 1014.6
20210925074004 60 0 0.0 0.0 0.00 0.00 0.00 100 1014.5
20210925073004 60 0 0.0 0.0 0.00 0.00 0.00 100 1014.4
20210925072003 60 0 0.0 0.0 0.00 0.00 0.00 100 1014.4
20210925071003 60 0 0.0 0.0 0.00 0.00 0.00 100 1014.4
20210925070004 59 0 0.0 0.0 0.00 0.00 0.00 100 1014.5
20210925065003 59 0 0.0 0.0 0.00 0.00 0.00 100 1014.5
20210925064003 59 0 0.0 0.0 0.00 0.00 0.00 100 1014.6
20210925063003 59 0 0.0 0.0 0.00 0.00 0.00 100 1014.5
20210925062004 59 0 0.0 0.0 0.00 0.00 0.00 99 1014.5
20210925061003 59 0 0.0 0.0 0.00 0.00 0.00 99 1014.5
20210925060004 59 0 0.0 0.0 0.00 0.00 0.00 99 1014.4
20210925055003 59 0 0.0 0.0 0.00 0.00 0.00 99 1014.5
20210925054003 59 0 0.0 0.0 0.00 0.00 0.00 99 1014.5
20210925053003 59 0 0.0 0.0 0.00 0.00 0.00 99 1014.5
20210925052003 59 0 0.0 0.0 0.00 0.00 0.00 99 1014.5
20210925051004 59 0 0.0 0.0 0.00 0.00 0.00 99 1014.6
20210925050004 59 0 0.0 0.0 0.00 0.00 0.00 99 1014.6